Time,TemperatureF,DewpointF,PressureIn,WindDirection,WindDirectionDegrees,WindSpeedMPH,WindSpeedGustMPH,Humidity,HourlyPrecipIn,Conditions,Clouds,dailyrainin,SolarRadiationWatts/m^2,SoftwareType,DateUTC
2013-07-26 00:00:00,63.0,59.0,-100.00,SW,225,0.0,-999.0,86,-99.99,,,-99.99,0.000000,,2013-07-26 04:00:00,
2013-07-26 00:53:00,63.0,59.0,-100.00,SW,225,0.0,-999.0,86,-99.99,,,-99.99,0.000000,,2013-07-26 04:53:00,
2013-07-26 01:00:00,60.0,57.0,-100.00,WNW,292,0.0,-999.0,91,-99.99,,,-99.99,0.000000,,2013-07-26 05:00:00,
2013-07-26 01:43:00,60.0,57.0,-100.00,WNW,292,0.0,-999.0,91,-99.99,,,-99.99,0.000000,,2013-07-26 05:43:00,
2013-07-26 01:52:00,60.0,57.0,-100.00,WNW,292,0.0,-999.0,91,-99.99,,,-99.99,0.000000,,2013-07-26 05:52:00,
2013-07-26 02:00:00,58.0,56.0,-100.00,NW,315,0.0,-999.0,96,-99.99,,,-99.99,0.000000,,2013-07-26 06:00:00,
2013-07-26 02:43:00,58.0,56.0,-100.00,NW,315,0.0,-999.0,96,-99.99,,,-99.99,0.000000,,2013-07-26 06:43:00,
2013-07-26 02:52:00,58.0,56.0,-100.00,NW,315,0.0,-999.0,96,-99.99,,,-99.99,0.000000,,2013-07-26 06:52:00,
2013-07-26 03:00:00,57.0,56.0,-100.00,NW,315,0.0,-999.0,97,-99.99,,,-99.99,0.000000,,2013-07-26 07:00:00,
2013-07-26 03:43:00,57.0,56.0,-100.00,NW,315,0.0,-999.0,97,-99.99,,,-99.99,0.000000,,2013-07-26 07:43:00,
2013-07-26 03:53:00,57.0,56.0,-100.00,NW,315,0.0,-999.0,97,-99.99,,,-99.99,0.000000,,2013-07-26 07:53:00,
2013-07-26 04:00:00,56.0,56.0,-100.00,SW,225,0.0,-999.0,97,-99.99,,,-99.99,0.000000,,2013-07-26 08:00:00,
2013-07-26 04:32:00,56.0,56.0,-100.00,SW,225,0.0,-999.0,97,-99.99,,,-99.99,0.000000,,2013-07-26 08:32:00,
2013-07-26 04:44:00,56.0,56.0,-100.00,SW,225,0.0,-999.0,97,-99.99,,,-99.99,0.000000,,2013-07-26 08:44:00,
2013-07-26 04:52:00,56.0,56.0,-100.00,SW,225,0.0,-999.0,97,-99.99,,,-99.99,0.000000,,2013-07-26 08:52:00,
2013-07-26 05:00:00,56.0,55.0,-100.00,East,90,0.0,-999.0,97,-99.99,,,-99.99,0.000000,,2013-07-26 09:00:00,
2013-07-26 05:43:00,56.0,55.0,-100.00,East,90,0.0,-999.0,97,-99.99,,,-99.99,0.000000,,2013-07-26 09:43:00,
2013-07-26 05:52:00,56.0,55.0,-100.00,East,90,0.0,-999.0,97,-99.99,,,-99.99,0.000000,,2013-07-26 09:52:00,
2013-07-26 06:00:00,55.0,55.0,-100.00,NE,45,0.0,-999.0,97,-99.99,,,-99.99,0.000000,,2013-07-26 10:00:00,
2013-07-26 06:43:00,55.0,55.0,-100.00,NE,45,0.0,-999.0,97,-99.99,,,-99.99,0.000000,,2013-07-26 10:43:00,
2013-07-26 06:53:00,55.0,55.0,-100.00,NE,45,0.0,-999.0,97,-99.99,,,-99.99,0.000000,,2013-07-26 10:53:00,
2013-07-26 07:00:00,55.0,55.0,-100.00,NE,45,0.0,-999.0,99,-99.99,,,-99.99,10.440000,,2013-07-26 11:00:00,
2013-07-26 07:43:00,55.0,55.0,-100.00,NE,45,0.0,-999.0,99,-99.99,,,-99.99,10.440000,,2013-07-26 11:43:00,
2013-07-26 07:52:00,55.0,55.0,-100.00,NE,45,0.0,-999.0,99,-99.99,,,-99.99,10.440000,,2013-07-26 11:52:00,
2013-07-26 08:00:00,59.0,58.0,-100.00,South,180,0.0,-999.0,95,-99.99,,,-99.99,76.559998,,2013-07-26 12:00:00,
2013-07-26 08:43:00,59.0,58.0,-100.00,South,180,0.0,-999.0,95,-99.99,,,-99.99,76.559998,,2013-07-26 12:43:00,
2013-07-26 08:53:00,59.0,58.0,-100.00,South,180,0.0,-999.0,95,-99.99,,,-99.99,76.559998,,2013-07-26 12:53:00,
2013-07-26 09:00:00,65.0,60.0,-100.00,SW,225,1.0,-999.0,83,-99.99,,,-99.99,257.519989,,2013-07-26 13:00:00,
2013-07-26 09:43:00,65.0,60.0,-100.00,SW,225,1.0,-999.0,83,-99.99,,,-99.99,257.519989,,2013-07-26 13:43:00,
2013-07-26 09:53:00,65.0,60.0,-100.00,SW,225,1.0,-999.0,83,-99.99,,,-99.99,257.519989,,2013-07-26 13:53:00,
2013-07-26 10:00:00,69.0,60.0,-100.00,SSW,202,3.0,-999.0,72,-99.99,,,-99.99,428.040009,,2013-07-26 14:00:00,
2013-07-26 10:43:00,69.0,60.0,-100.00,SSW,202,3.0,-999.0,72,-99.99,,,-99.99,428.040009,,2013-07-26 14:43:00,
2013-07-26 10:53:00,69.0,60.0,-100.00,SSW,202,3.0,-999.0,72,-99.99,,,-99.99,428.040009,,2013-07-26 14:53:00,
2013-07-26 11:00:00,71.0,60.0,-100.00,SSW,202,3.0,-999.0,68,-99.99,,,-99.99,358.440002,,2013-07-26 15:00:00,
2013-07-26 11:43:00,71.0,60.0,-100.00,SSW,202,3.0,-999.0,68,-99.99,,,-99.99,358.440002,,2013-07-26 15:43:00,
2013-07-26 11:53:00,71.0,60.0,-100.00,SSW,202,3.0,-999.0,68,-99.99,,,-99.99,358.440002,,2013-07-26 15:53:00,
2013-07-26 12:00:00,73.0,59.0,-100.00,South,180,3.0,-999.0,63,-99.99,,,-99.99,400.200012,,2013-07-26 16:00:00,
2013-07-26 12:43:00,73.0,59.0,-100.00,South,180,3.0,-999.0,63,-99.99,,,-99.99,400.200012,,2013-07-26 16:43:00,
2013-07-26 12:54:00,73.0,59.0,-100.00,South,180,3.0,-999.0,63,-99.99,,,-99.99,400.200012,,2013-07-26 16:54:00,
2013-07-26 13:00:00,75.0,60.0,-100.00,SSW,202,3.0,-999.0,60,-99.99,,,-99.99,575.359985,,2013-07-26 17:00:00,
2013-07-26 13:43:00,75.0,60.0,-100.00,SSW,202,3.0,-999.0,60,-99.99,,,-99.99,575.359985,,2013-07-26 17:43:00,
2013-07-26 13:53:00,75.0,60.0,-100.00,SSW,202,3.0,-999.0,60,-99.99,,,-99.99,575.359985,,2013-07-26 17:53:00,
2013-07-26 14:00:00,75.0,59.0,-100.00,South,180,4.0,-999.0,58,-99.99,,,-99.99,534.760010,,2013-07-26 18:00:00,
2013-07-26 14:44:00,75.0,59.0,-100.00,South,180,4.0,-999.0,58,-99.99,,,-99.99,534.760010,,2013-07-26 18:44:00,
2013-07-26 14:53:00,75.0,59.0,-100.00,South,180,4.0,-999.0,58,-99.99,,,-99.99,534.760010,,2013-07-26 18:53:00,
2013-07-26 15:00:00,75.0,60.0,-100.00,South,180,4.0,-999.0,58,-99.99,,,-99.99,475.600006,,2013-07-26 19:00:00,
2013-07-26 15:43:00,75.0,60.0,-100.00,South,180,4.0,-999.0,58,-99.99,,,-99.99,475.600006,,2013-07-26 19:43:00,
2013-07-26 15:52:00,75.0,60.0,-100.00,South,180,4.0,-999.0,58,-99.99,,,-99.99,475.600006,,2013-07-26 19:52:00,
2013-07-26 16:00:00,74.0,61.0,-100.00,SSW,202,3.0,-999.0,61,-99.99,,,-99.99,350.320007,,2013-07-26 20:00:00,
2013-07-26 16:43:00,74.0,61.0,-100.00,SSW,202,3.0,-999.0,61,-99.99,,,-99.99,350.320007,,2013-07-26 20:43:00,
2013-07-26 16:53:00,74.0,61.0,-100.00,SSW,202,3.0,-999.0,61,-99.99,,,-99.99,350.320007,,2013-07-26 20:53:00,
2013-07-26 17:00:00,74.0,61.0,-100.00,SSW,202,2.0,-999.0,64,-99.99,,,-99.99,313.200012,,2013-07-26 21:00:00,
2013-07-26 17:53:00,74.0,61.0,-100.00,SSW,202,2.0,-999.0,64,-99.99,,,-99.99,313.200012,,2013-07-26 21:53:00,
2013-07-26 18:00:00,74.0,63.0,-100.00,SSW,202,1.0,-999.0,67,-99.99,,,-99.99,212.279999,,2013-07-26 22:00:00,
2013-07-26 18:43:00,74.0,63.0,-100.00,SSW,202,1.0,-999.0,67,-99.99,,,-99.99,212.279999,,2013-07-26 22:43:00,
2013-07-26 18:53:00,74.0,63.0,-100.00,SSW,202,1.0,-999.0,67,-99.99,,,-99.99,212.279999,,2013-07-26 22:53:00,
2013-07-26 19:00:00,74.0,63.0,-100.00,SSW,202,2.0,-999.0,66,-99.99,,,-99.99,204.160004,,2013-07-26 23:00:00,
2013-07-26 19:43:00,74.0,63.0,-100.00,SSW,202,2.0,-999.0,66,-99.99,,,-99.99,204.160004,,2013-07-26 23:43:00,
2013-07-26 19:53:00,74.0,63.0,-100.00,SSW,202,2.0,-999.0,66,-99.99,,,-99.99,204.160004,,2013-07-26 23:53:00,
2013-07-26 20:00:00,72.0,62.0,-100.00,SW,225,2.0,-999.0,71,0.01,,,-99.99,46.400002,,2013-07-27 00:00:00,
2013-07-26 20:43:00,72.0,62.0,-100.00,SW,225,2.0,-999.0,71,0.01,,,-99.99,46.400002,,2013-07-27 00:43:00,
2013-07-26 20:53:00,72.0,62.0,-100.00,SW,225,2.0,-999.0,71,0.01,,,-99.99,46.400002,,2013-07-27 00:53:00,
2013-07-26 21:00:00,66.0,63.0,-100.00,WSW,247,1.0,-999.0,91,0.01,,,-99.99,4.640000,,2013-07-27 01:00:00,
2013-07-26 21:44:00,66.0,63.0,-100.00,WSW,247,1.0,-999.0,91,0.01,,,-99.99,4.640000,,2013-07-27 01:44:00,
2013-07-26 21:53:00,66.0,63.0,-100.00,WSW,247,1.0,-999.0,91,0.01,,,-99.99,4.640000,,2013-07-27 01:53:00,
2013-07-26 22:00:00,65.0,63.0,-100.00,WNW,292,1.0,-999.0,95,0.02,,,-99.99,1.160000,,2013-07-27 02:00:00,
2013-07-26 22:43:00,65.0,63.0,-100.00,WNW,292,1.0,-999.0,95,0.02,,,-99.99,1.160000,,2013-07-27 02:43:00,
2013-07-26 22:53:00,65.0,63.0,-100.00,WNW,292,1.0,-999.0,95,0.02,,,-99.99,1.160000,,2013-07-27 02:53:00,
2013-07-26 23:00:00,65.0,64.0,-100.00,SW,225,0.0,-999.0,97,-99.99,,,-99.99,0.000000,,2013-07-27 03:00:00,
2013-07-26 23:44:00,65.0,64.0,-100.00,SW,225,0.0,-999.0,97,-99.99,,,-99.99,0.000000,,2013-07-27 03:44:00,
2013-07-26 23:52:00,65.0,64.0,-100.00,SW,225,0.0,-999.0,97,-99.99,,,-99.99,0.000000,,2013-07-27 03:52:00,